ランキン彗星

C/2021 V1 ( Rankin )

English version
Home page
Updated on March 27, 2022

---------------------------------------------------------------------

・ プロフィール

発見日 2021年11月5日
発見光度 20.9等
発見者 David Rankin (Mt. Lemmon)

・ 軌道要素

Epoch 2022 Jan. 21.0 TT = JDT 2459600.5
T 2022 Apr. 30.37342 TT                                 Rudenko
q   3.0134536            (2000.0)            P               Q
z  +0.0014649      Peri.  195.10791     +0.81667573     -0.37344947
 +/-0.0000281      Node   207.65188     +0.57677570     +0.50276134
e   0.9955855      Incl.   71.44470     -0.01924925     -0.77959382
From 66 observations 2021 Oct. 2-2022 Feb. 3, mean residual 0".5.

・ 光度変化

        m1 = 12.5 + 5 logΔ + 10.0 log r

---------------------------------------------------------------------

軌道要素はM.P.E.C. 2022-C234に掲載されたものです。
光度グラフはComet for Windowsで作成したものです。

---------------------------------------------------------------------

Copyright(C) Seiichi Yoshida (comet@aerith.net). All rights reserved.